Location: Aurora Center
(43.5271°N, 98.5894°W)
Time: 06:03:59
(UTC-05:00)

ISS - Visible Passes

Search period start: 18 June 2024 00:00
Search period end: 28 June 2024 00:00
Orbit: 411 x 425 km, 51.6° (Epoch: 18 June)

Date Brightness Start Highest point End Pass type
(mag) Time Alt. Az. Time Alt. Az. Time Alt. Az.
23 Jun -2.2 04:32:55 15° S 04:34:56 25° SE 04:37:43 10° E visible
24 Jun -1.6 03:46:39 15° SE 03:47:02 15° SE 03:49:02 10° E visible
25 Jun -3.7 04:33:12 20° SW 04:35:19 67° SE 04:38:37 10° ENE visible
26 Jun -3.1 03:46:46 37° SSE 03:47:14 39° SE 03:50:23 10° ENE visible
27 Jun -1.8 03:00:15 20° ESE 03:00:15 20° ESE 03:01:55 10° E visible
27 Jun -3.1 04:33:09 15° W 04:35:45 50° NNW 04:39:02 10° NE visible
